Regional Weather Roundup
Issued by NWS Cleveland, OH

Home | Current Version | Previous Version | Graphics & Text | Print | Product List | Glossary On
Versions: 1 2 3 4 5 6 7 8 9 10 11 12 13 14 15 16 17 18 19 20 21 22 23 24 25 26 27 28 29 30 31 32 33 34 35 36 37 38 39 40 41 42 43 44 45 46 47 48 49 50
000
ASUS41 KCLE 240302
RWRCLE
OHIO REGIONAL WEATHER ROUNDUP
NATIONAL WEATHER SERVICE CLEVELAND, OH
1100 PM EDT TUE SEP 23 2014

NOTE: "FAIR" INDICATES FEW OR NO CLOUDS BELOW 12,000 FEET WITH NO
SIGNIFICANT WEATHER AND/OR OBSTRUCTIONS TO VISIBILITY.

OHZ001>008-015>018-024>027-034-035-043-044-240400-
   NORTHWEST OHIO

CITY           SKY/WX    TMP DP  RH WIND       PRES   REMARKS
DEFIANCE       CLEAR    N/A N/A N/A E6        30.34R
FINDLAY        CLEAR     57  50  77 E9        30.34R
TOLEDO EXPRESS CLEAR     51  50  96 CALM      30.35R
TOLEDO EXEC    CLEAR     53  48  83 E6          N/A
LIMA           CLEAR     51  46  83 E7        30.34R
$$

OHZ009>014-019>023-028>033-038-089-240400-
   NORTHEAST OHIO

CITY           SKY/WX    TMP DP  RH WIND       PRES   REMARKS
CLE-HOPKINS    CLEAR     56  49  77 E5        30.39R
CLE-LAKEFRONT  CLEAR     59  50  72 CALM      30.37R
CUY CO. ARPT   CLEAR     55  54  94 SE6       30.38S
LORAIN-ELYRIA  CLEAR     58  50  75 SE7       30.37S
ASHTABULA      CLEAR     48  45  89 CALM      30.40R
AKRON-CANTON   CLEAR     53  47  79 NE7       30.37S
WOOSTER        CLEAR     50  46  86 NE3       30.37S
MANSFIELD      CLEAR     51  47  86 CALM      30.37R
YOUNGSTOWN     CLEAR     54  51  90 NE7       30.38S
$$

OHZ042-051>053-060>062-070>072-077>081-240400-
  SOUTHWEST OHIO

CITY           SKY/WX    TMP DP  RH WIND       PRES   REMARKS
CINC-COVINGTON CLEAR     62  44  51 E8        30.30S
CINC-LUNKEN    CLEAR     51  49  92 N6        30.31S
HAMILTON       CLEAR     49  48  97 CALM      30.32S
DAYTON         CLEAR     58  44  60 E6        30.34R
WRIGHT-PAT AFB CLEAR     56  45  65 N1        30.33R
DAYTON GENERAL CLEAR     56  44  64 E7        30.32R
WILMINGTON     CLEAR     56  41  57 E8        30.33R
$$

OHZ036-037-039>041-045>050-054>059-063>069-073>076-082>088-240400-
  CENTRAL AND SOUTHEAST OHIO

CITY           SKY/WX    TMP DP  RH WIND       PRES   REMARKS
COLUMBUS       CLEAR     59  44  57 CALM      30.34R
OSU AIRPORT    CLEAR     55  45  68 NE3       30.34R
BOLTON FIELD   CLEAR     55  44  67 E3        30.35R
RICKENBACK AFB CLEAR     52  44  73 NE6       30.33S
NEWARK         CLEAR     47  43  86 CALM      30.35R
MARION         CLEAR     53  45  74 CALM      30.35R
LANCASTER      CLEAR     48  44  86 CALM      30.34S
ZANESVILLE     CLEAR     52  45  77 CALM      30.35R
NEW PHILLY     CLEAR     50  47  89 CALM      30.37R
$$



USA.gov is the U.S. government's official web portal to all federal, state and local government web resources and services.